Simultaneous Nadir Overpasses (SNOs) Predictions

Prediction of SNOs between AQUA and METOP-C Satellite Orbit:

Table of predicted SNOs for the next 14.0 days since TLE Epoch: 11/2/2024
Index Date (AQUA) Time (AQUA) Lat,Lon (AQUA) SZA (AQUA ) Date (METOP-C) Time (METOP-C) Lat,Lon (METOP-C) SZA (METOP-C ) Distance(km) Time Diff (sec)
1 11/03/2024 06:00:19 75.34, 91.35 90.54 11/03/2024 05:59:13 75.27, 88.39 90.42 84.01 66
2 11/03/2024 06:49:49 -75.84,-102.48 88.97 11/03/2024 06:49:43 -75.83,-102.52 88.98 1.49 6
3 11/03/2024 07:39:11 75.91, 64.99 91.10 11/03/2024 07:40:21 75.90, 65.05 91.11 1.70 70
4 11/05/2024 20:30:01 75.83,-127.44 91.81 11/05/2024 20:29:17 75.84,-127.38 91.81 1.81 44
5 11/05/2024 21:19:22 -75.89, 40.04 88.13 11/05/2024 21:19:58 -75.89, 40.11 88.13 2.11 36
6 11/08/2024 10:10:08 -75.82,-152.38 87.46 11/08/2024 10:08:55 -75.76,-152.55 87.53 8.36 73
7 11/08/2024 10:59:29 75.85, 15.19 92.59 11/08/2024 10:59:32 75.87, 15.13 92.60 2.28 3
8 11/08/2024 11:48:58 -76.30,-178.56 86.98 11/08/2024 11:50:05 -76.29,-176.10 86.94 65.03 67
9 11/11/2024 00:39:32 -75.84, -9.74 86.70 11/11/2024 00:39:08 -75.85, -9.82 86.70 2.08 24
10 11/11/2024 01:28:54 75.93, 157.66 93.39 11/11/2024 01:29:46 75.91, 157.71 93.37 3.12 52
11 11/13/2024 14:19:30 75.83, -34.63 93.97 11/13/2024 14:18:39 75.84, -34.71 93.99 3.19 51
12 11/13/2024 15:08:51 -75.88, 132.87 85.97 11/13/2024 15:09:20 -75.91, 132.82 85.94 3.10 29



Historial Predications of SNOs between AQUA and METOP-C
